Klamath Falls, OR

4:45 AM PST on February 08, 2016 (GMT -0800)
Klamath Falls International

Weather History for KLMT - October, 2014

Change the Weather History Date:

Saturday, October 25, 2014

  Actual Average Record
Temperature  
Mean Temperature 49 °F 44 °F  
Max Temperature 58 °F 58 °F 77 °F (1988)
Min Temperature 40 °F 29 °F 18 °F (2006)
Degree Days  
Heating Degree Days 16 22  
Month to date heating degree days 324 423  
Since 1 July heating degree days 500 779  
Cooling Degree Days 0 0  
Month to date cooling degree days 0 0  
Year to date cooling degree days 327 169  
Moisture  
Dew Point 39 °F    
Average Humidity 70    
Maximum Humidity 83    
Minimum Humidity 50    
Precipitation  
Precipitation 0.20 in 0.06 in 0.96 in (1979)
Month to date precipitation 1.70 0.66  
Year to date precipitation 10.16 10.93  
Sea Level Pressure  
Sea Level Pressure 29.78 in    
Wind  
Wind Speed 21 mph (SW)    
Max Wind Speed 41 mph    
Max Gust Speed 53 mph    
Visibility 10 miles    
Events Rain    
T = Trace of Precipitation, MM = Missing Value Source: NWS Daily Summary

Daily Weather History Graph

Daily Weather History Graph

Search for Another Location

Airport or City:

Trip Planner

Search our weather history database for the weather conditions in past years. The results will help you decide how hot, cold, wet, or windy it might be!

Date:

Astronomy

Oct. 25, 2014 Rise Set
Actual Time 7:31 AM PDT 6:09 PM PDT
Civil Twilight 7:02 AM PDT 6:38 PM PDT
Nautical Twilight 6:29 AM PDT 7:11 PM PDT
Astronomical Twilight 5:57 AM PDT 7:43 PM PDT
Moon 9:17 AM PDT (10/25) 7:35 PM PDT (10/25)
Length of Visible Light 11h 35m
Length of Day
10h 38m
Waxing Crescent, 4% of the Moon is Illuminated
Oct 25
Waxing Crescent
Oct 30
First Quarter
Nov 6
Full
Nov 14
Last Quarter
Nov 22
New

Hourly Weather History & Observations

Time (PDT) Temp. Windchill Dew Point Humidity Pressure Visibility Wind Dir Wind Speed Gust Speed Precip Events Conditions
12:53 AM 53.1 °F - 36.0 °F 52% 29.75 in 10.0 mi South 12.7 mph - N/A   Clear
1:53 AM 53.1 °F - 37.0 °F 55% 29.73 in 10.0 mi SSE 13.8 mph 17.3 mph N/A   Clear
2:53 AM 52.0 °F - 39.0 °F 61% 29.70 in 10.0 mi South 16.1 mph 24.2 mph N/A   Mostly Cloudy
3:53 AM 52.0 °F - 39.0 °F 61% 29.66 in 10.0 mi South 28.8 mph 34.5 mph N/A   Mostly Cloudy
4:53 AM 51.1 °F - 37.9 °F 61% 29.60 in 10.0 mi SSE 31.1 mph 43.7 mph 0.00 in Rain Light Rain
5:53 AM 51.1 °F - 37.9 °F 61% 29.63 in 10.0 mi South 16.1 mph 26.5 mph 0.00 in   Mostly Cloudy
6:53 AM 48.9 °F - 43.0 °F 80% 29.64 in 10.0 mi South 21.9 mph 33.4 mph 0.02 in Rain Light Rain
7:53 AM 48.0 °F - 43.0 °F 83% 29.68 in 10.0 mi SSW 13.8 mph 24.2 mph 0.02 in Rain Light Rain
8:53 AM 48.0 °F - 37.0 °F 66% 29.65 in 10.0 mi South 29.9 mph 40.3 mph 0.01 in   Scattered Clouds
9:53 AM 51.1 °F - 39.0 °F 63% 29.68 in 10.0 mi South 27.6 mph 40.3 mph N/A   Clear
10:53 AM 54.0 °F - 39.9 °F 59% 29.65 in 10.0 mi South 27.6 mph 36.8 mph N/A   Clear
11:53 AM 55.0 °F - 39.0 °F 55% 29.65 in 10.0 mi South 33.4 mph 43.7 mph N/A   Clear
12:53 PM 55.9 °F - 39.9 °F 55% 29.66 in 10.0 mi South 34.5 mph 46.0 mph N/A   Clear
1:53 PM 57.0 °F - 39.0 °F 51% 29.69 in 10.0 mi SSW 28.8 mph 46.0 mph N/A   Partly Cloudy
2:53 PM 55.0 °F - 41.0 °F 59% 29.67 in 10.0 mi South 35.7 mph 47.2 mph N/A   Mostly Cloudy
3:53 PM 52.0 °F - 39.9 °F 63% 29.77 in 10.0 mi SSW 39.1 mph 52.9 mph 0.00 in Rain Light Rain
4:53 PM 46.9 °F - 41.0 °F 80% 29.83 in 10.0 mi West 10.4 mph - 0.05 in   Overcast
5:53 PM 46.9 °F - 39.9 °F 77% 29.85 in 10.0 mi WSW 12.7 mph 24.2 mph 0.00 in   Partly Cloudy
6:36 PM 46.9 °F - 39.9 °F 77% 29.93 in 10.0 mi West 9.2 mph - N/A   Overcast
6:53 PM 45.0 °F 38.9 °F 42.1 °F 90% 29.91 in 8.0 mi West 12.7 mph - 0.05 in Rain Rain
7:09 PM 45.0 °F 39.3 °F 41.0 °F 86% 29.95 in 10.0 mi West 11.5 mph - 0.03 in Rain Light Rain
7:53 PM 45.0 °F 39.3 °F 39.0 °F 80% 29.93 in 10.0 mi WSW 11.5 mph 21.9 mph 0.03 in   Overcast
8:53 PM 44.1 °F 40.8 °F 39.0 °F 82% 29.96 in 10.0 mi WNW 5.8 mph - N/A   Overcast
9:53 PM 42.1 °F 34.5 °F 37.0 °F 82% 29.98 in 10.0 mi West 15.0 mph - 0.00 in Rain Light Rain
10:41 PM 42.1 °F 36.1 °F 37.0 °F 82% 30.03 in 10.0 mi WSW 10.4 mph - 0.02 in Rain Light Rain
10:53 PM 42.1 °F 38.4 °F 37.9 °F 85% 30.00 in 10.0 mi West 5.8 mph - 0.02 in Rain Light Rain
11:53 PM 42.1 °F 37.1 °F 37.0 °F 82% 30.01 in 10.0 mi West 8.1 mph - 0.00 in   Mostly Cloudy